Retour au catalogue

STARLINK-11683

ActifCommunicationsVLEO
NORAD 64239·PAYLOAD·🇺🇸 United States

Lancé Jun 3, 2025 depuis Cape Canaveral Space Force Station

Loading…

Prochains Passages (prochaines 24 heures)

TLE

FraisSource: CelesTrak SupGP

Époque: Sep 15, 2026, 03:35 UTC

1 64239C 25119G   26258.14979167  .00129220  00000+0  10037-2 0  2585
2 64239  43.0003 146.7962 0001683 253.6190 169.9946 15.70773881    17

Suivez STARLINK-11683 en temps réel avec AllMySat

Download on the App Store